Regional Weather Roundup
Issued by NWS

Home | Current Version | Previous Version | Text Only | Print | Product List | Glossary Off
Versions: 1 2 3 4 5 6 7 8 9 10 11 12 13 14 15 16 17 18 19 20 21 22 23 24 25 26 27 28 29 30 31 32 33 34 35 36 37 38 39 40 41 42 43 44 45 46 47 48 49 50

000
ASUS43 KOAX 251010
RWRNE

WEATHER ROUNDUP FOR NEBRASKA
NATIONAL WEATHER SERVICE OMAHA NE
500 AM CDT THU MAY 25 2017

NOTES: SATELLITE DATA IS BEING USED TO AUGMENT CLOUD COVER ABOVE
       12000 FEET.
       "FAIR" INDICATES FEW OR NO CLOUDS BELOW 12,000 FEET WITH NO
       SIGNIFICANT WEATHER AND/OR OBSTRUCTIONS TO VISIBILITY.

  * THESE STATIONS DO NOT REPORT WEATHER SUCH AS RAIN...SNOW OR FOG.

NEZ001>004-019>022-054>056-251100-
NEBRASKA PANHANDLE

CITY           SKY/WX    TMP DP  RH WIND       PRES   REMARKS
SCOTTSBLUFF    MOCLDY    56  46  69 NW18G24   29.53R
ALLIANCE       CLOUDY    49  46  90 W5        29.46R
CHADRON        CLOUDY    55  48  77 N5        29.48R
GORDON         FAIR      52  47  83 W6        29.45R
KIMBALL        CLOUDY    57  43  58 W10       29.53R
SIDNEY         PTCLDY    56  45  66 W12       29.48F
$$

NEZ057>060-069>072-079>082-251100-
SOUTHWEST NEBRASKA

CITY           SKY/WX    TMP DP  RH WIND       PRES   REMARKS
NORTH PLATTE   CLEAR     51  46  83 SE7       29.50F
IMPERIAL       CLEAR     54  45  71 SE9       29.47F
LEXINGTON      CLEAR     52  44  74 S15       29.53F
MCCOOK         CLEAR     47  43  86 E6        29.51F
OGALLALA       CLEAR     49  45  85 E3        29.47F
$$

NEZ005>010-023>029-035>040-094-251100-
NORTH CENTRAL NEBRASKA

CITY           SKY/WX    TMP DP  RH WIND       PRES   REMARKS
VALENTINE      CLEAR     56  42  59 S14G25    29.41R
AINSWORTH      CLEAR     52  45  76 S21G26    29.43S
BROKEN BOW     CLEAR     50  44  80 S14       29.52F
O`NEILL        CLEAR     55  43  64 S17G24    29.51F
ORD            CLOUDY    52  42  69 SE12      29.54F
THEDFORD       CLEAR     52  44  74 S8        29.49S
$$

NEZ041-046>049-061>064-073>077-083>087-251100-
SOUTH CENTRAL NEBRASKA

CITY           SKY/WX    TMP DP  RH WIND       PRES   REMARKS
GRAND ISLAND   PTCLDY    53  45  74 S12       29.60F
AURORA         PTCLDY    53  44  71 S15       29.59F
HASTINGS       CLOUDY    53  43  68 S12       29.58F
HEBRON         CLEAR     51  45  79 S6        29.63F
HOLDREGE       CLEAR     51  43  74 S16       29.55F
KEARNEY *      CLEAR     52  43  71 S17G24    29.57F
YORK           CLOUDY    52  45  76 S10       29.62R
$$

NEZ011>018-030>034-042>045-251100-
NORTHEAST NEBRASKA

CITY           SKY/WX    TMP DP  RH WIND       PRES   REMARKS
NORFOLK        CLEAR     52  42  69 SE14      29.56F
ALBION         CLOUDY    54  45  71 S12       29.56R
BLAIR          CLEAR     51  47  86 SE6       29.65R
FREMONT        CLEAR     51  45  79 SE6       29.63S
TEKAMAH        CLEAR     48  32  53 SE7       29.64R
WAYNE          CLEAR     49  46  90 S8        29.59F
$$

NEZ050>053-065>068-078-088>093-251100-
SOUTHEAST NEBRASKA

CITY           SKY/WX    TMP DP  RH WIND       PRES   REMARKS
LINCOLN        CLEAR     46  43  89 S7        29.65S
OMAHA EPPLEY   CLEAR     50  44  80 SE7       29.65S
BEATRICE       CLEAR     50  45  83 SE5       29.65R
FALLS CITY     CLEAR     48  46  93 SE5       29.67S
NEBRASKA CITY  CLEAR     49  46  92 SE6       29.66S
PLATTSMOUTH    CLEAR     53  49  86 SE7       29.66S
$$

NEZ044-045-051>053-067-251100-
OMAHA AREA

CITY           SKY/WX    TMP DP  RH WIND       PRES   REMARKS
OMAHA EPPLEY   CLEAR     50  44  80 SE7       29.65S
BLAIR          CLEAR     51  47  86 SE6       29.65R
FREMONT        CLEAR     51  45  79 SE6       29.63S
MILLARD        CLEAR     52  49  90 E3        29.65S
OFFUTT AFB     CLEAR     49  46  89 SE3       29.65S
PLATTSMOUTH    CLEAR     53  49  86 SE7       29.66S
WAHOO          FAIR      47  43  87 S5        29.64R
$$




USA.gov is the U.S. government's official web portal to all federal, state and local government web resources and services.